Ankeny, IA

12:01 PM CST on November 20, 2019 (GMT -0600)
Ankeny Regional

Weather History for KIKV - September, 2019

Change the Weather History Date:

Friday, September 20, 2019

  Actual Average (WUND) Record (WUND)
Temperature  
Mean Temperature 76 °F -  
Max Temperature 87 °F - - (-1)
Min Temperature 66 °F - - (-1)
Cooling Degree Days 12    
Growing Degree Days 26 (Base 50)    
Moisture  
Dew Point 69 °F    
Average Humidity 79    
Maximum Humidity 100    
Minimum Humidity 52    
Precipitation  
Precipitation 0.00 in - - ()
Sea Level Pressure  
Sea Level Pressure 30.01 in    
Wind  
Wind Speed 4 mph ()    
Max Wind Speed 15 mph    
Max Gust Speed 23 mph    
Visibility 7.2 miles    
Events Fog    
Averages and records for this station are not official NWS values.
T = Trace of Precipitation, MM = Missing Value Source: Averaged Metar Reports

Daily Weather History Graph

Daily Weather History Graph

Search for Another Location

Airport or City:

Astronomy

Sep. 20, 2019 Rise Set
Actual Time 6:59 AM CDT 7:15 PM CDT
Civil Twilight 6:31 AM CDT 7:43 PM CDT
Nautical Twilight 5:59 AM CDT 8:15 PM CDT
Astronomical Twilight 5:25 AM CDT 8:48 PM CDT
Moon 11:00 PM CDT 1:09 PM CDT
Length of Visible Light 13h 11m
Length of Day
12h 15m
Waning Gibbous, 65% of the Moon is Illuminated
Sep 20
Waning Gibbous
Sep 21
Last Quarter
Sep 28
New
Oct 5
First Quarter
Oct 13
Full

Hourly Weather History & Observations

Time (CDT) Temp. Heat Index Dew Point Humidity Pressure Visibility Wind Dir Wind Speed Gust Speed Precip Events Conditions
12:15 AM 71.6 °F - 69.8 °F 94% 30.02 in 8.0 mi SE 4.6 mph - N/A   Clear
12:35 AM 69.8 °F - 69.8 °F 100% 30.02 in 7.0 mi Calm Calm - N/A   Scattered Clouds
12:55 AM 71.6 °F - 69.8 °F 94% 30.03 in 6.0 mi SSE 3.5 mph - N/A   Scattered Clouds
1:15 AM 71.6 °F - 69.8 °F 94% 30.04 in 6.0 mi SSE 3.5 mph - N/A   Mostly Cloudy
1:35 AM 71.6 °F - 69.8 °F 94% 30.04 in 6.0 mi Calm Calm - N/A   Mostly Cloudy
1:55 AM 69.8 °F - 69.8 °F 100% 30.05 in 4.0 mi Calm Calm - N/A   Scattered Clouds
2:15 AM 69.8 °F - 69.8 °F 100% 30.05 in 2.5 mi Calm Calm - N/A   Partly Cloudy
2:35 AM 69.8 °F - 69.8 °F 100% 30.04 in 5.0 mi Calm Calm - N/A   Clear
2:55 AM 69.8 °F - 69.8 °F 100% 30.03 in 3.0 mi SSE 3.5 mph - N/A   Scattered Clouds
3:15 AM 69.8 °F - 69.8 °F 100% 30.03 in 1.8 mi Calm Calm - N/A   Mostly Cloudy
3:35 AM 69.8 °F - 69.8 °F 100% 30.03 in 1.5 mi Calm Calm - N/A   Clear
3:55 AM 69.8 °F - 69.8 °F 100% 30.02 in 0.8 mi Calm Calm - N/A   Mostly Cloudy
4:15 AM 69.8 °F - 69.8 °F 100% 30.03 in 0.2 mi Calm Calm - N/A Fog Fog
4:35 AM 68.0 °F - 68.0 °F 100% 30.02 in 0.2 mi Calm Calm - N/A Fog Fog
4:55 AM 69.8 °F - 68.0 °F 94% 30.02 in 1.0 mi Calm Calm - N/A   Clear
5:15 AM 69.8 °F - 68.0 °F 94% 30.02 in 2.0 mi Calm Calm - N/A   Clear
5:35 AM 68.0 °F - 68.0 °F 100% 30.02 in 0.2 mi Calm Calm - N/A Fog Fog
5:55 AM 69.8 °F - 69.8 °F 100% 30.02 in 1.0 mi Calm Calm - N/A   Clear
6:15 AM 68.0 °F - 68.0 °F 100% 30.03 in 0.5 mi Calm Calm - N/A Fog Fog
6:35 AM 66.2 °F - 66.2 °F 100% 30.03 in 0.2 mi Calm Calm - N/A Fog Fog
6:55 AM 66.2 °F - 66.2 °F 100% 30.03 in 0.2 mi Calm Calm - N/A Fog Fog
7:15 AM 66.2 °F - 66.2 °F 100% 30.04 in 0.5 mi Calm Calm - N/A Fog Fog
7:35 AM 68.0 °F - 66.2 °F 94% 30.04 in 3.0 mi Calm Calm - N/A   Clear
7:55 AM 68.0 °F - 68.0 °F 100% 30.05 in 4.0 mi Calm Calm - N/A   Clear
8:15 AM 69.8 °F - 69.8 °F 100% 30.05 in 5.0 mi Calm Calm - N/A   Clear
8:35 AM 71.6 °F - 71.6 °F 100% 30.05 in 8.0 mi Calm Calm - N/A   Clear
8:55 AM 73.4 °F - 71.6 °F 94% 30.06 in 9.0 mi Calm Calm - N/A   Clear
9:15 AM 75.2 °F - 69.8 °F 83% 30.07 in 10.0 mi SSE 4.6 mph - N/A   Clear
9:35 AM 77.0 °F - 71.6 °F 83% 30.07 in 10.0 mi SSE 4.6 mph - N/A   Clear
9:55 AM 77.0 °F - 71.6 °F 83% 30.07 in 10.0 mi SE 4.6 mph - N/A   Clear
10:15 AM 78.8 °F - 71.6 °F 78% 30.06 in 10.0 mi SE 4.6 mph - N/A   Clear
10:35 AM 80.6 °F 84.6 °F 71.6 °F 74% 30.07 in 10.0 mi SE 4.6 mph - N/A   Clear
10:55 AM 80.6 °F 84.6 °F 71.6 °F 74% 30.07 in 9.0 mi Variable 5.8 mph - N/A   Clear
11:15 AM 82.4 °F 87.2 °F 71.6 °F 70% 30.06 in 10.0 mi SSE 6.9 mph - N/A   Clear
11:35 AM 84.2 °F 89.6 °F 71.6 °F 66% 30.05 in 9.0 mi SE 6.9 mph - N/A   Clear
11:55 AM 84.2 °F 89.6 °F 71.6 °F 66% 30.04 in 10.0 mi SE 10.4 mph - N/A   Clear
12:15 PM 84.2 °F 89.6 °F 71.6 °F 66% 30.03 in 9.0 mi SSE 9.2 mph - N/A   Clear
12:35 PM 84.2 °F 89.6 °F 71.6 °F 66% 30.03 in 7.0 mi SE 9.2 mph 15.0 mph N/A   Clear
12:55 PM 86.0 °F 91.8 °F 71.6 °F 62% 30.02 in 9.0 mi SE 8.1 mph 16.1 mph N/A   Clear
1:15 PM 86.0 °F 91.8 °F 71.6 °F 62% 30.02 in 9.0 mi SSE 10.4 mph - N/A   Clear
1:35 PM 86.0 °F 90.4 °F 69.8 °F 58% 30.01 in 8.0 mi SSE 10.4 mph 16.1 mph N/A   Clear
1:55 PM 87.8 °F 92.6 °F 69.8 °F 55% 30.00 in 10.0 mi SSE 12.7 mph 18.4 mph N/A   Partly Cloudy
2:15 PM 87.8 °F 91.4 °F 68.0 °F 52% 29.99 in 10.0 mi SSE 12.7 mph 20.7 mph N/A   Partly Cloudy
2:35 PM 87.8 °F 91.4 °F 68.0 °F 52% 29.98 in 10.0 mi South 10.4 mph 19.6 mph N/A   Clear
2:55 PM 87.8 °F 91.4 °F 68.0 °F 52% 29.98 in 10.0 mi SSE 10.4 mph 19.6 mph N/A   Clear
3:15 PM 86.0 °F 89.4 °F 68.0 °F 55% 29.98 in 10.0 mi SSE 12.7 mph - N/A   Partly Cloudy
3:35 PM 87.8 °F 91.4 °F 68.0 °F 52% 29.97 in 10.0 mi SE 15.0 mph - N/A   Partly Cloudy
3:55 PM 87.8 °F 91.4 °F 68.0 °F 52% 29.97 in 10.0 mi SSE 11.5 mph 20.7 mph N/A   Partly Cloudy
4:15 PM 87.8 °F 92.6 °F 69.8 °F 55% 29.96 in 10.0 mi SSE 13.8 mph - N/A   Scattered Clouds
4:35 PM 86.0 °F 90.4 °F 69.8 °F 58% 29.96 in 10.0 mi SSE 11.5 mph - N/A   Partly Cloudy
4:55 PM 87.8 °F 92.6 °F 69.8 °F 55% 29.96 in 10.0 mi SSE 12.7 mph - N/A   Partly Cloudy
5:15 PM 86.0 °F 91.8 °F 71.6 °F 62% 29.96 in 10.0 mi SE 10.4 mph 19.6 mph N/A   Scattered Clouds
5:35 PM 86.0 °F 91.8 °F 71.6 °F 62% 29.96 in 10.0 mi SSE 11.5 mph 18.4 mph N/A   Scattered Clouds
5:55 PM 86.0 °F 91.8 °F 71.6 °F 62% 29.96 in 10.0 mi SSE 8.1 mph 16.1 mph N/A   Scattered Clouds
6:15 PM 84.2 °F 89.6 °F 71.6 °F 66% 29.96 in 10.0 mi SSE 9.2 mph - N/A   Scattered Clouds
6:35 PM 82.4 °F 86.3 °F 69.8 °F 66% 29.96 in 10.0 mi South 6.9 mph - N/A   Partly Cloudy
6:55 PM 82.4 °F 85.4 °F 68.0 °F 62% 29.96 in 10.0 mi North - - N/A   Partly Cloudy
7:15 PM 80.6 °F 83.2 °F 68.0 °F 65% 29.96 in 10.0 mi SSE 5.8 mph - N/A   Clear
7:35 PM 78.8 °F - 69.8 °F 74% 29.97 in 10.0 mi SSE 4.6 mph - N/A   Clear
7:55 PM 77.0 °F - 69.8 °F 78% 29.97 in 10.0 mi SE 4.6 mph - N/A   Clear
8:15 PM 77.0 °F - 68.0 °F 74% 29.97 in 10.0 mi SSE 5.8 mph - N/A   Clear
8:55 PM 75.2 °F - 68.0 °F 78% 29.97 in 10.0 mi SSE 4.6 mph - N/A   Clear
9:15 PM 75.2 °F - 68.0 °F 78% 29.96 in 10.0 mi SE 5.8 mph - N/A   Clear
9:35 PM 75.2 °F - 69.8 °F 83% 29.96 in 10.0 mi SSE 6.9 mph - N/A   Clear
9:55 PM 75.2 °F - 68.0 °F 78% 29.97 in 10.0 mi SSE 4.6 mph - N/A   Clear
10:35 PM 77.0 °F - 68.0 °F 74% 29.97 in 10.0 mi SSE 9.2 mph - N/A   Mostly Cloudy
10:55 PM 75.2 °F - 68.0 °F 78% 29.97 in 7.0 mi South 15.0 mph 23.0 mph N/A   Overcast
11:15 PM 75.2 °F - 68.0 °F 78% 29.96 in 10.0 mi SSE 11.5 mph 20.7 mph N/A   Overcast
11:35 PM 75.2 °F - 68.0 °F 78% 29.97 in 10.0 mi South 8.1 mph 17.3 mph N/A   Mostly Cloudy
11:55 PM 75.2 °F - 68.0 °F 78% 29.96 in 10.0 mi South 8.1 mph 15.0 mph N/A   Overcast